Location: ??
(35.5052°N, 139.7262°E)
Time: 19:33:19
(UTC+00:00)

Cosmos 1932 - Pass Details

Date: 21 October 2021
Orbit: 943 x 987 km, 65.0° (Epoch: 01 December)

Event Time Altitude Azimuth Distance (km) Brightness Sun altitude
Rises 11:26:53 0° 326° (NW) 3,618 8.1 -42.7°
Reaches altitude 10° 11:29:28 10° 322° (NW) 2,674 7.3 -43.2°
Enters shadow 11:31:11 19° 318° (NW) 2,074 6.6 -43.5°
